AEE455 LGSR-LGAV

Flight info

Callsign AEE455
Flight time 0h 27m
Altitude 20000
Route MADEX M601 MIL Y144 BADEL
Aircraft A320/M-SDE3FGHIRWY/LB1

Departure

Time 2026-05-05 19:52
Airport Santorini International Airport (LGSR)

Arrival

Time 2026-05-05 20:19
Airport Athens Eleftherios Venizelos International Airport (LGAV)
Time Latitude Longitude Altitude Speed Heading
2026-05-05 19:35 36.40340 25.47373 90 ft 0 kts 249°
2026-05-05 19:45 36.40350 25.47403 90 ft 7 kts 245°
2026-05-05 19:45 36.40347 25.47397 90 ft 8 kts 247°
2026-05-05 19:46 36.40345 25.47391 90 ft 0 kts 248°
2026-05-05 19:46 36.40350 25.47404 90 ft 2 kts 225°
2026-05-05 19:47 36.40364 25.47413 92 ft 2 kts 188°
2026-05-05 19:47 36.40379 25.47415 90 ft 1 kts 156°
2026-05-05 19:47 36.40377 25.47416 90 ft 1 kts 156°
2026-05-05 19:47 36.40367 25.47422 91 ft 2 kts 156°
2026-05-05 19:48 36.40335 25.47439 91 ft 8 kts 157°
2026-05-05 19:48 36.40275 25.47474 89 ft 11 kts 157°
2026-05-05 19:48 36.40196 25.47513 91 ft 14 kts 158°
2026-05-05 19:48 36.40131 25.47598 88 ft 16 kts 95°
2026-05-05 19:49 36.40049 25.47686 90 ft 18 kts 159°
2026-05-05 19:49 36.39966 25.47725 89 ft 20 kts 159°
2026-05-05 19:49 36.39772 25.47814 87 ft 25 kts 160°
2026-05-05 19:49 36.39596 25.47898 74 ft 29 kts 156°
2026-05-05 19:50 36.39401 25.47992 64 ft 32 kts 159°
2026-05-05 19:50 36.39190 25.48093 59 ft 33 kts 159°
2026-05-05 19:50 36.39039 25.48163 56 ft 11 kts 159°
2026-05-05 19:50 36.39006 25.48233 56 ft 12 kts 68°
2026-05-05 19:51 36.39048 25.48312 53 ft 11 kts 22°
2026-05-05 19:51 36.39215 25.48245 61 ft 62 kts 339°
2026-05-05 19:51 36.39886 25.47920 83 ft 140 kts 340°
2026-05-05 19:51 36.40921 25.47467 528 ft 162 kts 340°
2026-05-05 19:52 36.42032 25.47069 1374 ft 169 kts 338°
2026-05-05 19:52 36.43184 25.46706 2216 ft 175 kts 341°
2026-05-05 19:52 36.44422 25.46321 2560 ft 195 kts 341°
2026-05-05 19:52 36.45826 25.45884 2847 ft 220 kts 342°
2026-05-05 19:53 36.47391 25.45398 3263 ft 244 kts 344°
2026-05-05 19:53 36.49077 25.44879 3980 ft 253 kts 345°
2026-05-05 19:53 36.50793 25.44353 4916 ft 255 kts 346°
2026-05-05 19:53 36.52520 25.43822 5876 ft 255 kts 346°
2026-05-05 19:54 36.54243 25.43290 6838 ft 255 kts 346°
2026-05-05 19:54 36.55978 25.42751 7706 ft 258 kts 347°
2026-05-05 19:54 36.57732 25.42205 8531 ft 261 kts 347°
2026-05-05 19:54 36.59504 25.41652 9360 ft 265 kts 347°
2026-05-05 19:55 36.61279 25.41097 10145 ft 268 kts 346°
2026-05-05 19:55 36.63019 25.40212 10854 ft 274 kts 330°
2026-05-05 19:55 36.64523 25.38664 11327 ft 293 kts 314°
2026-05-05 19:55 36.65631 25.36409 11501 ft 322 kts 294°
2026-05-05 19:56 36.66141 25.33580 11637 ft 348 kts 282°
2026-05-05 19:56 36.66513 25.30518 11920 ft 364 kts 281°
2026-05-05 19:56 36.66889 25.27373 12507 ft 369 kts 281°
2026-05-05 19:56 36.67268 25.24196 13165 ft 373 kts 281°
2026-05-05 19:57 36.67655 25.20988 13829 ft 376 kts 281°
2026-05-05 19:57 36.67916 25.18852 14218 ft 378 kts 281°
2026-05-05 19:57 36.68426 25.14505 15049 ft 380 kts 281°
2026-05-05 19:57 36.68775 25.11236 15677 ft 381 kts 281°
2026-05-05 19:58 36.69110 25.07959 16340 ft 382 kts 281°
2026-05-05 19:58 36.69440 25.04670 17001 ft 383 kts 281°
2026-05-05 19:58 36.69771 25.01371 17670 ft 385 kts 281°
2026-05-05 19:58 36.70108 24.98049 18335 ft 386 kts 281°
2026-05-05 19:59 36.70448 24.94732 18921 ft 387 kts 281°
2026-05-05 19:59 36.70790 24.91399 19498 ft 388 kts 281°
2026-05-05 19:59 36.71131 24.88053 19928 ft 389 kts 281°
2026-05-05 19:59 36.71470 24.84711 20049 ft 390 kts 281°
2026-05-05 20:00 36.71822 24.81282 20084 ft 406 kts 281°
2026-05-05 20:00 36.72186 24.77739 20084 ft 418 kts 281°
2026-05-05 20:00 36.72555 24.74113 20079 ft 423 kts 281°
2026-05-05 20:00 36.72920 24.70473 20079 ft 424 kts 281°
2026-05-05 20:01 36.73282 24.66821 20079 ft 425 kts 281°
2026-05-05 20:01 36.73641 24.63166 20079 ft 424 kts 281°
2026-05-05 20:01 36.73999 24.59554 20081 ft 424 kts 281°
2026-05-05 20:01 36.74395 24.55916 20079 ft 423 kts 284°
2026-05-05 20:02 36.75180 24.52405 20082 ft 419 kts 293°
2026-05-05 20:02 36.76429 24.49143 20080 ft 416 kts 302°
2026-05-05 20:02 36.78055 24.46168 20080 ft 415 kts 307°
2026-05-05 20:02 36.79736 24.43246 20075 ft 415 kts 307°
2026-05-05 20:03 36.81412 24.40313 20072 ft 415 kts 307°
2026-05-05 20:03 36.83083 24.37377 20058 ft 415 kts 307°
2026-05-05 20:03 36.84753 24.34432 20057 ft 415 kts 307°
2026-05-05 20:03 36.86416 24.31489 20057 ft 415 kts 307°
2026-05-05 20:04 36.88057 24.28586 20057 ft 415 kts 307°
2026-05-05 20:04 36.89722 24.25647 20057 ft 415 kts 307°
2026-05-05 20:04 36.91392 24.22708 20058 ft 415 kts 307°
2026-05-05 20:04 36.93063 24.19769 20053 ft 415 kts 307°
2026-05-05 20:05 36.94731 24.16828 20053 ft 415 kts 307°
2026-05-05 20:05 36.96402 24.13873 20054 ft 415 kts 307°
2026-05-05 20:05 36.98068 24.10920 20052 ft 415 kts 307°
2026-05-05 20:05 36.99735 24.07965 20053 ft 415 kts 307°
2026-05-05 20:06 37.01402 24.05012 20038 ft 415 kts 307°
2026-05-05 20:06 37.03068 24.02056 20045 ft 416 kts 307°
2026-05-05 20:06 37.04731 23.99103 19845 ft 413 kts 307°
2026-05-05 20:06 37.06384 23.96167 18854 ft 413 kts 307°
2026-05-05 20:07 37.08031 23.93241 17965 ft 409 kts 307°
2026-05-05 20:07 37.09660 23.90341 17134 ft 404 kts 307°
2026-05-05 20:07 37.11266 23.87474 16336 ft 400 kts 307°
2026-05-05 20:07 37.12860 23.84624 15549 ft 398 kts 307°
2026-05-05 20:08 37.14429 23.81820 14786 ft 397 kts 307°
2026-05-05 20:08 37.16191 23.79167 14045 ft 395 kts 318°
2026-05-05 20:08 37.18381 23.77124 13261 ft 392 kts 332°
2026-05-05 20:08 37.20883 23.75805 12506 ft 389 kts 345°
2026-05-05 20:09 37.23534 23.75263 11767 ft 385 kts 358°
2026-05-05 20:09 37.26193 23.75384 11240 ft 377 kts
2026-05-05 20:09 37.28741 23.75585 11114 ft 357 kts
2026-05-05 20:09 37.31155 23.75779 10989 ft 339 kts
2026-05-05 20:10 37.32694 23.75903 10901 ft 329 kts
2026-05-05 20:10 37.34926 23.76047 10788 ft 314 kts
2026-05-05 20:10 37.37066 23.76153 10666 ft 302 kts
2026-05-05 20:10 37.39131 23.76244 10545 ft 290 kts
2026-05-05 20:11 37.41116 23.76331 10404 ft 281 kts
2026-05-05 20:11 37.43044 23.76420 10233 ft 274 kts
2026-05-05 20:11 37.44944 23.76512 10176 ft 274 kts
2026-05-05 20:11 37.46855 23.76609 10103 ft 274 kts
2026-05-05 20:12 37.48766 23.76705 9772 ft 278 kts
2026-05-05 20:12 37.50682 23.76803 9397 ft 277 kts
2026-05-05 20:12 37.52596 23.76900 9063 ft 274 kts
2026-05-05 20:12 37.54499 23.76997 8703 ft 273 kts
2026-05-05 20:13 37.56396 23.77095 8348 ft 272 kts
2026-05-05 20:13 37.58282 23.77192 7994 ft 271 kts
2026-05-05 20:13 37.60166 23.77288 7653 ft 270 kts
2026-05-05 20:13 37.62042 23.77385 7303 ft 269 kts
2026-05-05 20:14 37.63911 23.77479 6971 ft 268 kts
2026-05-05 20:14 37.65772 23.77570 6639 ft 267 kts
2026-05-05 20:14 37.67657 23.77663 5987 ft 277 kts
2026-05-05 20:14 37.69626 23.77763 5242 ft 290 kts
2026-05-05 20:15 37.71678 23.77869 4489 ft 300 kts
2026-05-05 20:15 37.73755 23.77976 4184 ft 294 kts
2026-05-05 20:15 37.75760 23.78079 4038 ft 283 kts
2026-05-05 20:15 37.77668 23.78421 3913 ft 273 kts 20°
2026-05-05 20:16 37.79291 23.79641 3543 ft 274 kts 34°
2026-05-05 20:16 37.80822 23.81075 3144 ft 275 kts 36°
2026-05-05 20:16 37.82329 23.82515 2994 ft 265 kts 36°
2026-05-05 20:16 37.83754 23.83884 3003 ft 250 kts 36°
2026-05-05 20:17 37.85076 23.85154 3008 ft 231 kts 36°
2026-05-05 20:17 37.86297 23.86334 2783 ft 214 kts 36°
2026-05-05 20:17 37.87455 23.87472 2286 ft 209 kts 36°
2026-05-05 20:17 37.88610 23.88607 1585 ft 214 kts 36°
2026-05-05 20:18 37.89811 23.89721 999 ft 211 kts 34°
2026-05-05 20:18 37.90959 23.90789 673 ft 198 kts 36°
2026-05-05 20:18 37.92030 23.91784 408 ft 179 kts 35°
2026-05-05 20:18 37.92952 23.92662 314 ft 148 kts 36°
2026-05-05 20:19 37.93651 23.93319 291 ft 77 kts 36°
2026-05-05 20:19 37.93860 23.93542 294 ft 32 kts 51°
2026-05-05 20:19 37.93946 23.93742 299 ft 15 kts 76°
2026-05-05 20:19 37.93884 23.93803 299 ft 14 kts 202°
2026-05-05 20:20 37.93805 23.93724 300 ft 16 kts 217°
2026-05-05 20:20 37.93696 23.93643 300 ft 14 kts 179°
2026-05-05 20:20 37.93647 23.93697 300 ft 0 kts 126°